Regional Weather Roundup
Issued by NWS Upton, NY

Current Version | Previous Version | Text Only | Print | Product List | Glossary On
Versions: 1 2 3 4 5 6 7 8 9 10 11 12 13 14 15 16 17 18 19 20 21 22 23 24 25 26 27 28 29 30 31 32 33 34 35 36 37 38 39 40 41 42 43 44 45 46 47 48 49 50
000 ASUS41 KOKX 202205 RWROKX REGIONAL WEATHER ROUNDUP NATIONAL WEATHER SERVICE NEW YORK NY 500 PM EST SAT DEC 20 2014 NOTE: "FAIR" INDICATES FEW OR NO CLOUDS BELOW 12,000 FEET WITH NO SIGNIFICANT WEATHER AND/OR OBSTRUCTIONS TO VISIBILITY. NYZ071-072-176-178-NJZ106-104-202300- NEW YORK CITY METRO AREA CITY SKY/WX TMP DP RH WIND PRES REMARKS CENTRAL PARK CLOUDY 33 20 58 NE5 30.28S WCI 29 LAGUARDIA APRT CLOUDY 33 21 61 N6 30.27S WCI 28 KENNEDY INTL CLOUDY 34 20 56 CALM 30.28S NEWARK/LIBERTY CLOUDY 33 21 61 VRB6 30.28R WCI 28 BRNX BOT. GARD N/A N/A N/A N/A N2 30.28R TETERBORO CLOUDY 33 20 58 N3 30.27R $$ NYZ177-179-078>081-202300- LONG ISLAND NEW YORK CITY SKY/WX TMP DP RH WIND PRES REMARKS FARMINGDALE CLOUDY 32 21 64 W3 30.27S ISLIP CLOUDY 33 22 63 N3 30.25S SHIRLEY CLOUDY 32 24 72 NW3 30.27S WESTHAMPTON CLOUDY 32 25 75 W5 30.28R WCI 27 MONTAUK POINT N/A 36 27 69 N5 30.25S WCI 32 $$ NYZ052-065-067-202300- HUDSON VALLEY CITY SKY/WX TMP DP RH WIND PRES REMARKS WHITE PLAINS CLOUDY 30 20 66 N5 30.24S WCI 25 NEWBURGH CLOUDY 28 23 80 VRB6 30.27R WCI 22 MONTGOMERY CLOUDY 30 20 66 N6 30.26R WCI 24 POUGHKEEPSIE CLOUDY 30 19 63 N6 30.27S WCI 24 ALBANY MOCLDY 29 18 63 N3 30.29S $$ NJZ001-105-106-008-010-013-015-019>022-104-202300- NEW JERSEY CITY SKY/WX TMP DP RH WIND PRES REMARKS NEWARK/LIBERTY CLOUDY 33 21 61 VRB6 30.28R WCI 28 TETERBORO CLOUDY 33 20 58 N3 30.27R CALDWELL CLOUDY 32 20 61 N3 30.27S MORRISTOWN CLOUDY 32 23 69 NW5 30.27S WCI 27 SOMERVILLE CLOUDY 33 20 58 N5 30.26S WCI 29 SUSSEX CLOUDY 30 20 66 CALM 30.25R ANDOVER N/A 29 19 66 VRB3 30.25S TRENTON CLOUDY 32 20 61 CALM 30.27R MILLVILLE PTCLDY 29 22 75 CALM 30.28R ATLANTIC CITY CLOUDY 33 21 61 NW6 30.28R WCI 28 WRIGHTSTOWN CLOUDY 31 21 66 N5 30.25R WCI 27 TOMS RIVER CLOUDY 32 21 64 NW6 30.28R WCI 26 BELMAR CLOUDY 32 18 55 N8 30.26S WCI 25 $$ PAZ047>061-062-071-202300- EASTERN PENNSYLVANIA CITY SKY/WX TMP DP RH WIND PRES REMARKS PHILADELPHIA CLOUDY 35 21 56 NW5 30.29R WCI 31 ALLENTOWN CLOUDY 33 22 63 CALM 30.26R SCRANTON CLOUDY 31 20 63 NW5 30.23R WCI 26 $$ CTZ002-004>006-009-010-012-RIZ004-006-007-MAZ004-011-015-202300- SOUTHERN NEW ENGLAND IN CT CITY SKY/WX TMP DP RH WIND PRES REMARKS BRADLEY INTL CLOUDY 32 20 61 CALM 30.25S HARTFORD CLOUDY 31 20 63 VRB3 30.27S DANBURY CLOUDY 30 19 63 CALM 30.26R WTRBRY/OXFORD CLOUDY 28 18 64 NE7 30.23S WCI 21 BRIDGEPORT CLOUDY 33 24 69 NE5 30.27R WCI 29 MERIDEN CLOUDY 30 22 72 NW3 30.27R NEW HAVEN CLOUDY 34 23 64 N7 30.26S WCI 28 CHESTER CLOUDY 30 25 80 N7 30.25R WCI 23 GROTON CLOUDY 33 25 72 NW5 30.25R WCI 29 WILLIMANTIC CLOUDY 34 22 61 N5 30.25S WCI 30 IN RI CITY SKY/WX TMP DP RH WIND PRES REMARKS PROVIDENCE FLURRIES 33 26 75 N10 30.26S WCI 25 BLOCK ISLAND CLOUDY 36 27 69 NE8 30.23R WCI 29 WESTERLY CLOUDY 35 25 66 NE7 30.25R WCI 29 IN MA CITY SKY/WX TMP DP RH WIND PRES REMARKS BOSTON FLURRIES 33 25 72 N10 30.28S WCI 25 WORCESTER CLOUDY 29 23 78 NE7 30.23R WCI 22 WESTFIELD CLOUDY 33 20 58 CALM 30.25S PROVINCETOWN CLOUDY 39 32 75 NE12 30.25R WCI 32 NANTUCKET LGT RAIN 39 36 89 NW5 30.22R $$ ANZ330-335-338-340-345-350-353-355-202300- COASTAL MARINE OBSERVATIONS STATION/POSITION TIME SKY/WX TEMP WIND PRES VSBY WAVE AIR SEA DIR/SP/G HT/PER (UTC) (F) (DEG/KT/KT) (MB) (MI) (FT/S) NY HARB ENTRANCE 2200 34 46 330/ 12/ 16 1024.9 1/10 4S FIRE IS 2200 45 N/A 1/10 20S FIRE ISLAND 2100 35 49 1025.0 1/11 23SW MTP 2200 N/A 2/ 3 HUDSON CANYON 2200 39 54 350/ 10/ 12 1023.5 2/ 4 EXECUTION ROCKS 2200 34 41 350/ 8/ 10 N/A WESTERN LI SOUND 2200 33 350/ 6/ 8 N/A 0 CENTRAL LI SOUND 2100 33 44 30/ 6/ 8 N/A 1 EASTERN LI SOUND NOT AVBL ROBBINS REEF 2200 32 CALM 1023.9 $$ >>>>>>>>>>>>>>>>>>>>>>>>>>>> KEY <<<<<<<<<<<<<<<<<<<<<<<<<<< > < > SKY/WX - SKY CONDITION/PRESENT WEATHER < > TMP - TEMPERATURE IN FAHRENHEIT < > DP - DEWPOINT IN FAHRENHEIT < > RH - RELATIVE HUMIDITY IN PERCENT < > WIND - DIRECTION AND SPEED IN MPH < > PRES - MEAN SEA LEVEL PRESSURE IN INCHES OF HG < > WCI - WIND CHILL INDEX < > VSB - VISIBILITY IN MILES < > HX - HEAT INDEX < > TC - TEMPERATURE IN CELSIUS < > VRB - VARIABLE WIND DIRECTION < > < >>>>>>>>>>>>>>>>>>>>>>>>>>>> KEY <<<<<<<<<<<<<<<<<<<<<<<<<<<

USA.gov is the U.S. government's official web portal to all federal, state and local government web resources and services.